Weather History for KCDR - June, 2014

Change the Weather History Date:

Monday, June 9, 2014

  Actual Average Record
Temperature  
Mean Temperature 58 °F 64 °F  
Max Temperature 70 °F 79 °F 104 °F (1926)
Min Temperature 45 °F 49 °F 33 °F (1950)
Degree Days  
Heating Degree Days 7 4  
Month to date heating degree days 50 40  
Since 1 June heating degree days 50 40  
Since 1 July heating degree days 7260 7105  
Cooling Degree Days 0 2  
Month to date cooling degree days 1 17  
Year to date cooling degree days 32 37  
Since 1 June cooling degree days 1 17  
Growing Degree Days 7 (Base 50)    
Moisture  
Dew Point 46 °F    
Average Humidity 67    
Maximum Humidity 100    
Minimum Humidity 33    
Precipitation  
Precipitation 0.00 in 0.12 in 1.58 in (1965)
Month to date precipitation 1.22 1.10  
Year to date precipitation 9.60 8.04  
Sea Level Pressure  
Sea Level Pressure 30.06 in    
Wind  
Wind Speed 5 mph (SW)    
Max Wind Speed 13 mph    
Max Gust Speed 17 mph    
Visibility 10 miles    
Events      
T = Trace of Precipitation, MM = Missing Value Source: NWS Daily Summary

Daily Weather History Graph

Daily Weather History Graph

Search for Another Location

Airport or City:

Trip Planner

Search our weather history database for the weather conditions in past years. The results will help you decide how hot, cold, wet, or windy it might be!

Date:

Astronomy

Jun. 09, 2014 Rise Set
Actual Time 5:13 AM MDT 8:29 PM MDT
Civil Twilight 4:38 AM MDT 9:04 PM MDT
Nautical Twilight 3:53 AM MDT 9:49 PM MDT
Astronomical Twilight 2:58 AM MDT 10:45 PM MDT
Moon 4:48 PM MDT (6/9) 2:47 AM MDT (6/9)
Length of Visible Light 16h 25m
Length of Day
15h 16m
Waxing Gibbous, 85% of the Moon is Illuminated
Jun 9
Waxing Gibbous
Jun 12
Full
Jun 19
Last Quarter
Jun 27
New
Jul 5
First Quarter

Hourly Weather History & Observations

Time (MDT) Temp. Windchill Dew Point Humidity Pressure Visibility Wind Dir Wind Speed Gust Speed Precip Events Conditions
12:05 AM 52.0 °F - 50.0 °F 93% 30.11 in 10.0 mi NNE 6.9 mph - N/A   Overcast
12:15 AM 51.1 °F - 50.0 °F 96% 30.11 in 10.0 mi NNE 5.8 mph - N/A   Overcast
12:24 AM 51.1 °F - 50.0 °F 96% 30.12 in 10.0 mi NE 4.6 mph - N/A   Overcast
12:34 AM 51.1 °F - 50.0 °F 96% 30.12 in 10.0 mi NNE 4.6 mph - N/A   Overcast
12:53 AM 51.1 °F - 50.0 °F 96% 30.13 in 10.0 mi Calm Calm - N/A   Overcast
1:53 AM 50.0 °F - 48.9 °F 96% 30.12 in 10.0 mi NNW 5.8 mph - N/A   Overcast
2:53 AM 50.0 °F - 48.9 °F 96% 30.12 in 10.0 mi Calm Calm - N/A   Overcast
3:11 AM 50.0 °F - 48.9 °F 96% 30.10 in 10.0 mi WNW 4.6 mph - N/A   Overcast
3:39 AM 48.0 °F - 46.9 °F 96% 30.11 in 10.0 mi West 4.6 mph - N/A   Overcast
3:53 AM 46.9 °F - 46.9 °F 100% 30.13 in 10.0 mi West 5.8 mph - N/A   Overcast
4:37 AM 46.0 °F 44.8 °F 45.0 °F 96% 30.11 in 10.0 mi WSW 3.5 mph - N/A   Scattered Clouds
4:53 AM 46.9 °F - 45.0 °F 93% 30.13 in 10.0 mi SW 4.6 mph - N/A   Mostly Cloudy
5:01 AM 46.9 °F - 46.0 °F 97% 30.11 in 10.0 mi WSW 3.5 mph - N/A   Mostly Cloudy
5:14 AM 46.9 °F - 46.0 °F 97% 30.11 in 10.0 mi SSW 4.6 mph - N/A   Scattered Clouds
5:53 AM 45.0 °F 42.6 °F 44.1 °F 97% 30.15 in 10.0 mi SW 4.6 mph - N/A   Clear
6:53 AM 46.0 °F 43.1 °F 45.0 °F 96% 30.17 in 10.0 mi WSW 5.8 mph - N/A   Clear
7:53 AM 50.0 °F - 46.0 °F 86% 30.15 in 10.0 mi WSW 8.1 mph - N/A   Clear
9:53 AM 57.9 °F - 48.0 °F 70% 30.12 in 10.0 mi Variable 3.5 mph - N/A   Partly Cloudy
10:53 AM 62.1 °F - 46.9 °F 58% 30.10 in 10.0 mi Variable 4.6 mph - N/A   Clear
12:53 PM 66.0 °F - 43.0 °F 43% 30.05 in 10.0 mi North 4.6 mph - N/A   Clear
1:53 PM 66.0 °F - 42.1 °F 42% 30.04 in 10.0 mi Variable 3.5 mph - N/A   Clear
2:53 PM 66.9 °F - 39.0 °F 36% 30.01 in 10.0 mi East 3.5 mph - N/A   Clear
3:53 PM 69.1 °F - 42.1 °F 38% 29.99 in 10.0 mi NNE 3.5 mph - N/A   Clear
4:53 PM 68.0 °F - 41.0 °F 37% 29.98 in 10.0 mi Calm Calm - N/A   Clear
5:53 PM 69.1 °F - 39.9 °F 35% 29.96 in 10.0 mi ESE 4.6 mph - N/A   Clear
6:53 PM 68.0 °F - 46.9 °F 47% 29.94 in 10.0 mi SE 5.8 mph - N/A   Clear
7:53 PM 63.0 °F - 50.0 °F 63% 29.94 in 10.0 mi South 8.1 mph - N/A   Clear
8:53 PM 55.9 °F - 48.9 °F 77% 29.94 in 10.0 mi SSE 8.1 mph - N/A   Clear
9:36 PM 54.0 °F - 46.9 °F 77% 29.94 in 10.0 mi SSE 6.9 mph - N/A   Partly Cloudy
9:53 PM 53.1 °F - 46.9 °F 80% 29.94 in 10.0 mi SSE 8.1 mph - N/A   Partly Cloudy
10:53 PM 53.1 °F - 45.0 °F 74% 29.92 in 10.0 mi SSE 8.1 mph - N/A   Clear
11:53 PM 55.9 °F - 45.0 °F 67% 29.91 in 10.0 mi WSW 8.1 mph - N/A   Clear